TAM3667 SBVT-SBGL

Flight info

Callsign TAM3667
Flight time 0h 46m
Altitude 32000
Route USVAG UN401 MOLSU
Aircraft A320/M-SDE3FGHIRWY/LB1

Departure

Time 2026-04-24 14:27
Airport Eurico de Aguiar Salles International Airport (SBVT)

Arrival

Time 2026-04-24 15:13
Airport Rio Galeão – Tom Jobim International Airport (SBGL)
Time Latitude Longitude Altitude Speed Heading
2026-04-24 14:10 -20.26535 -40.28171 21 ft 0 kts 262°
2026-04-24 14:17 -20.26530 -40.28140 22 ft 2 kts 262°
2026-04-24 14:18 -20.26529 -40.28129 23 ft 2 kts 262°
2026-04-24 14:18 -20.26528 -40.28112 24 ft 2 kts 295°
2026-04-24 14:18 -20.26539 -40.28099 22 ft 2 kts 339°
2026-04-24 14:18 -20.26554 -40.28094 21 ft 2 kts 350°
2026-04-24 14:19 -20.26560 -40.28093 21 ft 1 kts 352°
2026-04-24 14:19 -20.26563 -40.28092 21 ft 0 kts 352°
2026-04-24 14:20 -20.26558 -40.28093 21 ft 5 kts 352°
2026-04-24 14:20 -20.26498 -40.28085 22 ft 9 kts
2026-04-24 14:20 -20.26442 -40.28076 21 ft 8 kts
2026-04-24 14:20 -20.26393 -40.28067 21 ft 6 kts
2026-04-24 14:21 -20.26353 -40.28062 21 ft 5 kts
2026-04-24 14:21 -20.26317 -40.28064 22 ft 7 kts 351°
2026-04-24 14:21 -20.26251 -40.28074 24 ft 11 kts 352°
2026-04-24 14:21 -20.26181 -40.28085 21 ft 10 kts 352°
2026-04-24 14:22 -20.26106 -40.28096 21 ft 13 kts 352°
2026-04-24 14:22 -20.26005 -40.28111 21 ft 17 kts 352°
2026-04-24 14:22 -20.25749 -40.28148 22 ft 18 kts 352°
2026-04-24 14:23 -20.25634 -40.28166 21 ft 16 kts 353°
2026-04-24 14:23 -20.25529 -40.28181 20 ft 15 kts 352°
2026-04-24 14:23 -20.25419 -40.28196 21 ft 16 kts 353°
2026-04-24 14:23 -20.25316 -40.28211 19 ft 14 kts 353°
2026-04-24 14:24 -20.25220 -40.28226 18 ft 13 kts 352°
2026-04-24 14:24 -20.25132 -40.28237 19 ft 12 kts 355°
2026-04-24 14:24 -20.25066 -40.28203 21 ft 10 kts 33°
2026-04-24 14:24 -20.25017 -40.28170 20 ft 7 kts 32°
2026-04-24 14:25 -20.24982 -40.28146 20 ft 5 kts 32°
2026-04-24 14:25 -20.24951 -40.28126 20 ft 6 kts 31°
2026-04-24 14:25 -20.24841 -40.28102 20 ft 18 kts
2026-04-24 14:25 -20.24781 -40.28085 20 ft 7 kts 314°
2026-04-24 14:26 -20.24816 -40.28110 21 ft 14 kts 182°
2026-04-24 14:26 -20.25099 -40.28067 21 ft 80 kts 172°
2026-04-24 14:26 -20.25884 -40.27952 25 ft 145 kts 172°
2026-04-24 14:26 -20.26988 -40.27796 476 ft 165 kts 171°
2026-04-24 14:27 -20.28117 -40.27626 1328 ft 163 kts 172°
2026-04-24 14:27 -20.29257 -40.27454 1846 ft 173 kts 172°
2026-04-24 14:27 -20.30529 -40.27290 2128 ft 195 kts 179°
2026-04-24 14:27 -20.31886 -40.27734 2369 ft 222 kts 217°
2026-04-24 14:28 -20.32953 -40.29045 2775 ft 248 kts 232°
2026-04-24 14:28 -20.34013 -40.30577 3488 ft 262 kts 233°
2026-04-24 14:28 -20.35099 -40.32167 4373 ft 268 kts 233°
2026-04-24 14:28 -20.36202 -40.33788 5251 ft 272 kts 233°
2026-04-24 14:29 -20.37325 -40.35430 6123 ft 276 kts 233°
2026-04-24 14:29 -20.38467 -40.37086 6980 ft 279 kts 234°
2026-04-24 14:29 -20.39626 -40.38763 7792 ft 283 kts 234°
2026-04-24 14:29 -20.40804 -40.40467 8604 ft 288 kts 234°
2026-04-24 14:30 -20.41596 -40.41611 9134 ft 292 kts 235°
2026-04-24 14:30 -20.43227 -40.43963 10178 ft 298 kts 234°
2026-04-24 14:30 -20.44490 -40.45783 10572 ft 316 kts 234°
2026-04-24 14:30 -20.45845 -40.47740 10826 ft 338 kts 234°
2026-04-24 14:31 -20.47260 -40.49791 11352 ft 347 kts 234°
2026-04-24 14:31 -20.48704 -40.51881 12007 ft 353 kts 234°
2026-04-24 14:31 -20.50171 -40.54001 12651 ft 357 kts 234°
2026-04-24 14:31 -20.51655 -40.56147 13301 ft 361 kts 233°
2026-04-24 14:32 -20.53154 -40.58322 13957 ft 366 kts 234°
2026-04-24 14:32 -20.54664 -40.60514 14506 ft 369 kts 233°
2026-04-24 14:32 -20.56174 -40.62702 15046 ft 372 kts 233°
2026-04-24 14:32 -20.57736 -40.64967 15636 ft 375 kts 233°
2026-04-24 14:33 -20.59268 -40.67191 16180 ft 378 kts 233°
2026-04-24 14:33 -20.60832 -40.69462 16733 ft 381 kts 233°
2026-04-24 14:33 -20.62403 -40.71751 17272 ft 384 kts 233°
2026-04-24 14:33 -20.64012 -40.74089 17821 ft 387 kts 233°
2026-04-24 14:34 -20.65610 -40.76412 18364 ft 390 kts 233°
2026-04-24 14:34 -20.67197 -40.78723 18836 ft 392 kts 233°
2026-04-24 14:34 -20.68814 -40.81071 19353 ft 392 kts 233°
2026-04-24 14:34 -20.70563 -40.83348 19877 ft 392 kts 227°
2026-04-24 14:35 -20.72356 -40.85494 20378 ft 392 kts 227°
2026-04-24 14:35 -20.74175 -40.87668 20873 ft 393 kts 227°
2026-04-24 14:35 -20.76001 -40.89848 21368 ft 394 kts 227°
2026-04-24 14:35 -20.77832 -40.92032 21862 ft 395 kts 227°
2026-04-24 14:36 -20.79663 -40.94218 22342 ft 396 kts 227°
2026-04-24 14:36 -20.81499 -40.96413 22840 ft 396 kts 227°
2026-04-24 14:36 -20.83340 -40.98618 23324 ft 397 kts 227°
2026-04-24 14:36 -20.85182 -41.00825 23784 ft 398 kts 227°
2026-04-24 14:37 -20.87028 -41.03035 24177 ft 399 kts 227°
2026-04-24 14:37 -20.88879 -41.05253 24561 ft 400 kts 227°
2026-04-24 14:37 -20.90737 -41.07480 24944 ft 401 kts 228°
2026-04-24 14:37 -20.92598 -41.09710 25304 ft 403 kts 228°
2026-04-24 14:38 -20.94465 -41.11947 25675 ft 404 kts 228°
2026-04-24 14:38 -20.96341 -41.14195 26046 ft 405 kts 228°
2026-04-24 14:38 -20.98220 -41.16451 26411 ft 406 kts 228°
2026-04-24 14:38 -21.00101 -41.18713 26749 ft 408 kts 228°
2026-04-24 14:39 -21.01993 -41.20990 27096 ft 410 kts 228°
2026-04-24 14:39 -21.03888 -41.23274 27444 ft 411 kts 229°
2026-04-24 14:39 -21.05790 -41.25566 27811 ft 412 kts 229°
2026-04-24 14:39 -21.07701 -41.27861 28136 ft 414 kts 229°
2026-04-24 14:40 -21.09617 -41.30162 28446 ft 416 kts 229°
2026-04-24 14:40 -21.11545 -41.32480 28789 ft 417 kts 229°
2026-04-24 14:40 -21.13474 -41.34803 29118 ft 418 kts 229°
2026-04-24 14:40 -21.15410 -41.37139 29433 ft 420 kts 229°
2026-04-24 14:41 -21.17353 -41.39483 29747 ft 421 kts 229°
2026-04-24 14:41 -21.19301 -41.41833 30053 ft 423 kts 229°
2026-04-24 14:41 -21.21260 -41.44194 30320 ft 424 kts 229°
2026-04-24 14:41 -21.23223 -41.46564 30550 ft 426 kts 229°
2026-04-24 14:42 -21.24528 -41.48141 30715 ft 427 kts 229°
2026-04-24 14:42 -21.26505 -41.50529 30934 ft 429 kts 229°
2026-04-24 14:42 -21.28490 -41.52926 31158 ft 431 kts 229°
2026-04-24 14:42 -21.30482 -41.55331 31378 ft 433 kts 229°
2026-04-24 14:43 -21.32483 -41.57749 31647 ft 433 kts 229°
2026-04-24 14:43 -21.34479 -41.60163 31966 ft 432 kts 229°
2026-04-24 14:43 -21.36469 -41.62575 32114 ft 432 kts 229°
2026-04-24 14:43 -21.38435 -41.64961 32144 ft 419 kts 229°
2026-04-24 14:44 -21.40344 -41.67281 32147 ft 412 kts 229°
2026-04-24 14:44 -21.44121 -41.71864 32147 ft 408 kts 229°
2026-04-24 14:45 -21.47877 -41.76429 32148 ft 408 kts 229°
2026-04-24 14:45 -21.51629 -41.80986 32147 ft 407 kts 229°
2026-04-24 14:46 -21.55375 -41.85545 32145 ft 407 kts 229°
2026-04-24 14:46 -21.59121 -41.90102 32143 ft 407 kts 229°
2026-04-24 14:47 -21.62842 -41.94680 32145 ft 406 kts 233°
2026-04-24 14:47 -21.65621 -41.99958 32153 ft 406 kts 242°
2026-04-24 14:48 -21.68245 -42.05335 32151 ft 406 kts 242°
2026-04-24 14:48 -21.70859 -42.10724 32152 ft 406 kts 242°
2026-04-24 14:49 -21.73474 -42.16102 32151 ft 406 kts 242°
2026-04-24 14:49 -21.76090 -42.21480 32151 ft 406 kts 242°
2026-04-24 14:50 -21.78705 -42.26849 32147 ft 405 kts 242°
2026-04-24 14:50 -21.81296 -42.32187 32146 ft 405 kts 242°
2026-04-24 14:50 -21.82611 -42.34899 31971 ft 400 kts 242°
2026-04-24 14:51 -21.83884 -42.37527 31733 ft 394 kts 242°
2026-04-24 14:51 -21.85131 -42.40102 31495 ft 391 kts 242°
2026-04-24 14:51 -21.86385 -42.42691 31264 ft 389 kts 242°
2026-04-24 14:51 -21.87636 -42.45270 31031 ft 387 kts 243°
2026-04-24 14:52 -21.88877 -42.47833 30795 ft 385 kts 243°
2026-04-24 14:52 -21.90111 -42.50383 30563 ft 383 kts 243°
2026-04-24 14:52 -21.91341 -42.52923 30349 ft 382 kts 243°
2026-04-24 14:52 -21.92562 -42.55443 30045 ft 377 kts 243°
2026-04-24 14:53 -21.93766 -42.57933 29596 ft 373 kts 243°
2026-04-24 14:53 -21.94958 -42.60394 29160 ft 368 kts 243°
2026-04-24 14:53 -21.96134 -42.62823 28735 ft 364 kts 243°
2026-04-24 14:53 -21.97296 -42.65227 28320 ft 359 kts 243°
2026-04-24 14:54 -21.98440 -42.67605 27914 ft 355 kts 243°
2026-04-24 14:54 -21.99572 -42.69956 27525 ft 352 kts 242°
2026-04-24 14:54 -22.00691 -42.72282 27132 ft 348 kts 243°
2026-04-24 14:54 -22.01801 -42.74588 26744 ft 344 kts 242°
2026-04-24 14:55 -22.02896 -42.76864 26373 ft 340 kts 242°
2026-04-24 14:55 -22.03980 -42.79119 25995 ft 338 kts 242°
2026-04-24 14:55 -22.05054 -42.81356 25604 ft 335 kts 242°
2026-04-24 14:55 -22.06123 -42.83585 25215 ft 334 kts 242°
2026-04-24 14:56 -22.07187 -42.85804 24806 ft 332 kts 242°
2026-04-24 14:56 -22.08248 -42.88013 24396 ft 331 kts 242°
2026-04-24 14:56 -22.09308 -42.90217 23992 ft 331 kts 242°
2026-04-24 14:56 -22.10367 -42.92422 23537 ft 332 kts 242°
2026-04-24 14:57 -22.11424 -42.94625 23097 ft 330 kts 242°
2026-04-24 14:57 -22.12479 -42.96823 22683 ft 329 kts 242°
2026-04-24 14:57 -22.13529 -42.99010 22262 ft 328 kts 242°
2026-04-24 14:57 -22.14573 -43.01190 21848 ft 328 kts 242°
2026-04-24 14:58 -22.15618 -43.03375 21439 ft 327 kts 242°
2026-04-24 14:58 -22.16657 -43.05549 21033 ft 327 kts 243°
2026-04-24 14:58 -22.17701 -43.07729 20625 ft 327 kts 242°
2026-04-24 14:58 -22.18746 -43.09910 20230 ft 328 kts 243°
2026-04-24 14:59 -22.19794 -43.12104 19818 ft 329 kts 243°
2026-04-24 14:59 -22.20844 -43.14302 19406 ft 331 kts 243°
2026-04-24 14:59 -22.21903 -43.16513 18996 ft 333 kts 243°
2026-04-24 14:59 -22.22967 -43.18739 18586 ft 335 kts 243°
2026-04-24 15:00 -22.24039 -43.20984 18134 ft 337 kts 244°
2026-04-24 15:00 -22.25097 -43.23207 17721 ft 338 kts 243°
2026-04-24 15:00 -22.26174 -43.25464 17309 ft 338 kts 244°
2026-04-24 15:00 -22.27249 -43.27717 16906 ft 338 kts 244°
2026-04-24 15:01 -22.28325 -43.29980 16490 ft 339 kts 244°
2026-04-24 15:01 -22.29402 -43.32246 16080 ft 340 kts 244°
2026-04-24 15:01 -22.30488 -43.34523 15677 ft 341 kts 244°
2026-04-24 15:01 -22.31573 -43.36803 15264 ft 342 kts 244°
2026-04-24 15:02 -22.32664 -43.39096 14853 ft 344 kts 244°
2026-04-24 15:02 -22.33760 -43.41402 14437 ft 345 kts 244°
2026-04-24 15:02 -22.34850 -43.43698 14215 ft 341 kts 244°
2026-04-24 15:02 -22.35927 -43.45945 14078 ft 333 kts 242°
2026-04-24 15:03 -22.37325 -43.47910 13836 ft 330 kts 224°
2026-04-24 15:03 -22.39201 -43.49353 13200 ft 337 kts 206°
2026-04-24 15:03 -22.41383 -43.50303 12310 ft 340 kts 200°
2026-04-24 15:03 -22.43591 -43.51206 11626 ft 336 kts 200°
2026-04-24 15:04 -22.45750 -43.52094 11110 ft 328 kts 200°
2026-04-24 15:04 -22.47857 -43.52964 10612 ft 321 kts 200°
2026-04-24 15:04 -22.49916 -43.53819 10114 ft 313 kts 200°
2026-04-24 15:04 -22.51926 -43.54656 9595 ft 306 kts 200°
2026-04-24 15:05 -22.53895 -43.55439 9127 ft 297 kts 194°
2026-04-24 15:05 -22.55906 -43.55701 8669 ft 287 kts 176°
2026-04-24 15:05 -22.57824 -43.55319 8230 ft 276 kts 159°
2026-04-24 15:05 -22.59540 -43.54475 7810 ft 267 kts 153°
2026-04-24 15:06 -22.61071 -43.53668 7433 ft 259 kts 153°
2026-04-24 15:06 -22.62687 -43.52822 7031 ft 255 kts 153°
2026-04-24 15:06 -22.64132 -43.51834 6639 ft 238 kts 137°
2026-04-24 15:06 -22.65180 -43.50592 6241 ft 224 kts 123°
2026-04-24 15:07 -22.66065 -43.49250 5824 ft 215 kts 124°
2026-04-24 15:07 -22.66934 -43.47940 5377 ft 214 kts 124°
2026-04-24 15:07 -22.67803 -43.46628 4830 ft 214 kts 124°
2026-04-24 15:07 -22.68673 -43.45316 4339 ft 214 kts 124°
2026-04-24 15:08 -22.69532 -43.44022 3911 ft 208 kts 125°
2026-04-24 15:08 -22.70371 -43.42760 3603 ft 206 kts 124°
2026-04-24 15:08 -22.71194 -43.41522 3352 ft 196 kts 125°
2026-04-24 15:08 -22.71970 -43.40354 3090 ft 187 kts 125°
2026-04-24 15:09 -22.72715 -43.39231 2831 ft 179 kts 126°
2026-04-24 15:09 -22.73415 -43.38178 2640 ft 164 kts 126°
2026-04-24 15:09 -22.74059 -43.37208 2397 ft 153 kts 126°
2026-04-24 15:09 -22.74670 -43.36286 2193 ft 149 kts 126°
2026-04-24 15:10 -22.75270 -43.35383 2001 ft 147 kts 126°
2026-04-24 15:10 -22.75863 -43.34488 1812 ft 146 kts 126°
2026-04-24 15:10 -22.76455 -43.33596 1629 ft 145 kts 126°
2026-04-24 15:10 -22.77043 -43.32709 1421 ft 144 kts 126°
2026-04-24 15:11 -22.77627 -43.31829 1250 ft 144 kts 125°
2026-04-24 15:11 -22.78186 -43.30985 1065 ft 143 kts 125°
2026-04-24 15:11 -22.78789 -43.30075 878 ft 144 kts 124°
2026-04-24 15:11 -22.79366 -43.29205 697 ft 145 kts 124°
2026-04-24 15:12 -22.79947 -43.28327 517 ft 146 kts 123°
2026-04-24 15:12 -22.81133 -43.26530 110 ft 147 kts 124°
2026-04-24 15:12 -22.81707 -43.25663 27 ft 129 kts 126°
2026-04-24 15:13 -22.82136 -43.25022 23 ft 87 kts 126°
2026-04-24 15:13 -22.82307 -43.24754 19 ft 17 kts 118°
2026-04-24 15:13 -22.82344 -43.24648 20 ft 14 kts 106°
2026-04-24 15:13 -22.82361 -43.24545 19 ft 13 kts 98°
2026-04-24 15:14 -22.82362 -43.24451 18 ft 12 kts 67°
2026-04-24 15:14 -22.82300 -43.24395 18 ft 12 kts 36°
2026-04-24 15:14 -22.82237 -43.24346 21 ft 11 kts 35°
2026-04-24 15:14 -22.82175 -43.24300 23 ft 11 kts 27°
2026-04-24 15:15 -22.82107 -43.24330 21 ft 12 kts 308°
2026-04-24 15:15 -22.82053 -43.24413 21 ft 15 kts 306°
2026-04-24 15:15 -22.81989 -43.24510 21 ft 17 kts 305°
2026-04-24 15:15 -22.81907 -43.24606 21 ft 18 kts 348°
2026-04-24 15:16 -22.81794 -43.24554 21 ft 17 kts
2026-04-24 15:16 -22.81703 -43.24567 22 ft 10 kts 357°
2026-04-24 15:16 -22.81632 -43.24570 22 ft 4 kts 357°
2026-04-24 15:16 -22.81614 -43.24571 22 ft 0 kts 357°